Estación de La Cruz
Ultimos registro cada 15 minutos 77
| N° | Estación | Fecha / Hora | Temperatura | Humedad | Lluvia | Velocidad | Dirección | Radiación | Presion |
| 77 | La Cruz | 09-05-2026 19:00 | 12,3 | 75,9 | 0 | 0 | 171 | 0,6 | 995,9 |
| 76 | La Cruz | 09-05-2026 18:45 | 12,9 | 75,6 | 0 | 0 | 171 | 0,6 | 996 |
| 75 | La Cruz | 09-05-2026 18:30 | 13,3 | 74,3 | 0 | 0 | 171 | 0,6 | 995,9 |
| 74 | La Cruz | 09-05-2026 18:15 | 14,8 | 69,9 | 0 | 0 | 171 | 0,6 | 995,8 |
| 73 | La Cruz | 09-05-2026 18:00 | 16,3 | 65,2 | 0 | 0 | 164 | 1,9 | 995,5 |
| 72 | La Cruz | 09-05-2026 17:45 | 17,5 | 60,9 | 0 | 0 | 167 | 5,6 | 995,3 |
| 71 | La Cruz | 09-05-2026 17:30 | 18,9 | 55,6 | 0 | 0 | 170 | 10,6 | 995,2 |
| 70 | La Cruz | 09-05-2026 17:15 | 20,1 | 51 | 0 | 0 | 171 | 21,9 | 995,2 |
| 69 | La Cruz | 09-05-2026 17:00 | 20,9 | 49,5 | 0 | 0 | 164 | 31,9 | 995,1 |
| 68 | La Cruz | 09-05-2026 16:45 | 21,6 | 45,4 | 0 | 0 | 178 | 69,4 | 995,3 |
| 67 | La Cruz | 09-05-2026 16:30 | 22,2 | 42,3 | 0 | 0 | 227 | 155,6 | 995,4 |
| 66 | La Cruz | 09-05-2026 16:15 | 23,3 | 41,4 | 0 | 0 | 240 | 141,9 | 995,3 |
| 65 | La Cruz | 09-05-2026 16:00 | 23,7 | 39,6 | 0 | 0 | 175 | 146,9 | 995,3 |
| 64 | La Cruz | 09-05-2026 15:45 | 24,2 | 36,7 | 0 | 0 | 175 | 194,4 | 995,4 |
| 63 | La Cruz | 09-05-2026 15:30 | 24,4 | 36,9 | 0 | 0 | 194 | 133,1 | 995,4 |
| 62 | La Cruz | 09-05-2026 15:15 | 24,3 | 36,6 | 0 | 0 | 209 | 310,6 | 995,5 |
| 61 | La Cruz | 09-05-2026 15:00 | 24,4 | 36,6 | 0 | 0 | 230 | 493,1 | 995,8 |
| 60 | La Cruz | 09-05-2026 14:45 | 23,4 | 37,6 | 0 | 0,5 | 168 | 524,4 | 995,9 |
| 59 | La Cruz | 09-05-2026 14:30 | 24 | 38,1 | 0 | 0 | 226 | 554,4 | 995,8 |
| 58 | La Cruz | 09-05-2026 14:15 | 23,8 | 40,2 | 0 | 0 | 205 | 579,4 | 996 |
| 57 | La Cruz | 09-05-2026 14:00 | 23,5 | 40,4 | 0 | 0 | 218 | 600,6 | 996,1 |
| 56 | La Cruz | 09-05-2026 13:45 | 22,7 | 42,2 | 0 | 0,5 | 236 | 616,9 | 996,1 |
| 55 | La Cruz | 09-05-2026 13:30 | 23,7 | 41,5 | 0 | 0,5 | 204 | 628,1 | 996,2 |
| 54 | La Cruz | 09-05-2026 13:15 | 23,5 | 38,7 | 0 | 0,5 | 212 | 644,4 | 996,2 |
| 53 | La Cruz | 09-05-2026 13:00 | 24 | 36,9 | 0 | 0 | 192 | 651,9 | 996,3 |
| 52 | La Cruz | 09-05-2026 12:45 | 25,1 | 34,9 | 0 | 0 | 274 | 653,1 | 996,5 |
| 51 | La Cruz | 09-05-2026 12:30 | 25,7 | 33,6 | 0 | 0 | 330 | 655,6 | 996,5 |
| 50 | La Cruz | 09-05-2026 12:15 | 25,2 | 35,4 | 0 | 0 | 0 | 651,9 | 996,5 |
| 49 | La Cruz | 09-05-2026 12:00 | 24,4 | 37,6 | 0 | 0 | 343 | 640,6 | 996,6 |
| 48 | La Cruz | 09-05-2026 11:45 | 24,2 | 38,7 | 0 | 0 | 326 | 628,1 | 996,7 |
| 47 | La Cruz | 09-05-2026 11:30 | 23,4 | 40,9 | 0 | 0 | 1 | 608,1 | 997 |
| 46 | La Cruz | 09-05-2026 11:15 | 22,7 | 42,2 | 0 | 0 | 6 | 590,6 | 997,1 |
| 45 | La Cruz | 09-05-2026 11:00 | 21,4 | 45,4 | 0 | 0 | 334 | 560,6 | 997,2 |
| 44 | La Cruz | 09-05-2026 10:45 | 20,8 | 49 | 0 | 0 | 350 | 533,1 | 997,5 |
| 43 | La Cruz | 09-05-2026 10:30 | 18,4 | 56,5 | 0 | 0 | 10 | 501,9 | 997,7 |
| 42 | La Cruz | 09-05-2026 10:15 | 17,7 | 56,6 | 0 | 0 | 331 | 466,9 | 997,8 |
| 41 | La Cruz | 09-05-2026 10:00 | 15,4 | 62,6 | 0 | 0 | 351 | 233,1 | 998 |
| 40 | La Cruz | 09-05-2026 09:45 | 14,3 | 65,8 | 0 | 0 | 357 | 73,1 | 998 |
| 39 | La Cruz | 09-05-2026 09:30 | 12,8 | 69,4 | 0 | 0 | 341 | 116,9 | 998 |
| 38 | La Cruz | 09-05-2026 09:15 | 11,7 | 74,4 | 0 | 0 | 350 | 95,6 | 998,2 |
| 37 | La Cruz | 09-05-2026 09:00 | 9,9 | 81,6 | 0 | 0 | 348 | 83,1 | 998,1 |
| 36 | La Cruz | 09-05-2026 08:45 | 8,4 | 89,2 | 0 | 0 | 357 | 60,6 | 998 |
| 35 | La Cruz | 09-05-2026 08:30 | 7,6 | 94,5 | 0 | 0 | 39 | 35,6 | 997,9 |
| 34 | La Cruz | 09-05-2026 08:15 | 6,5 | 95,3 | 0 | 0 | 62 | 29,4 | 997,8 |
| 33 | La Cruz | 09-05-2026 08:00 | 6,6 | 96,1 | 0 | 0 | 102 | 19,4 | 997,6 |
| 32 | La Cruz | 09-05-2026 07:45 | 4,4 | 95,8 | 0 | 0 | 152 | 8,1 | 997,7 |
| 31 | La Cruz | 09-05-2026 07:30 | 3 | 95,2 | 0 | 0 | 154 | 3,1 | 997,9 |
| 30 | La Cruz | 09-05-2026 07:15 | 3 | 95,2 | 0 | 0 | 154 | 0,6 | 998 |
| 29 | La Cruz | 09-05-2026 07:00 | 3,2 | 95 | 0 | 0 | 154 | 0,6 | 998 |
| 28 | La Cruz | 09-05-2026 06:45 | 3,9 | 95,1 | 0 | 0 | 154 | 0,6 | 997,9 |
| 27 | La Cruz | 09-05-2026 06:30 | 4,9 | 95,6 | 0 | 0 | 154 | 0,6 | 997,7 |
| 26 | La Cruz | 09-05-2026 06:15 | 3,7 | 95,3 | 0 | 0 | 154 | 0,6 | 997,7 |
| 25 | La Cruz | 09-05-2026 06:00 | 2,4 | 94,7 | 0 | 0 | 154 | 0,6 | 997,9 |
| 24 | La Cruz | 09-05-2026 05:45 | 2,9 | 94,8 | 0 | 0 | 154 | 0,6 | 997,9 |
| 23 | La Cruz | 09-05-2026 05:30 | 2,9 | 94,7 | 0 | 0 | 154 | 0,6 | 997,8 |
| 22 | La Cruz | 09-05-2026 05:15 | 3,3 | 94,6 | 0 | 0 | 154 | 0,6 | 997,7 |
| 21 | La Cruz | 09-05-2026 05:00 | 3,3 | 94,5 | 0 | 0 | 154 | 0,6 | 997,4 |
| 20 | La Cruz | 09-05-2026 04:45 | 3,8 | 94,6 | 0 | 0 | 154 | 0,6 | 997,4 |
| 19 | La Cruz | 09-05-2026 04:30 | 4 | 94,7 | 0 | 0 | 154 | 0,6 | 997,4 |
| 18 | La Cruz | 09-05-2026 04:15 | 3,3 | 94,5 | 0 | 0 | 154 | 0,6 | 997,4 |
| 17 | La Cruz | 09-05-2026 04:00 | 3 | 94 | 0 | 0 | 154 | 0,6 | 997,3 |
| 16 | La Cruz | 09-05-2026 03:45 | 3,6 | 94,2 | 0 | 0 | 154 | 0,6 | 997,6 |
| 15 | La Cruz | 09-05-2026 03:30 | 3,6 | 94,1 | 0 | 0 | 154 | 0,6 | 997,4 |
| 14 | La Cruz | 09-05-2026 03:15 | 4,3 | 94,3 | 0 | 0 | 154 | 0,6 | 997,5 |
| 13 | La Cruz | 09-05-2026 03:00 | 4,3 | 94,1 | 0 | 0 | 154 | 0,6 | 997,6 |
| 12 | La Cruz | 09-05-2026 02:45 | 4,3 | 93,9 | 0 | 0 | 154 | 0,6 | 997,9 |
| 11 | La Cruz | 09-05-2026 02:30 | 4,4 | 93,8 | 0 | 0 | 154 | 0,6 | 998,1 |
| 10 | La Cruz | 09-05-2026 02:15 | 4,5 | 93,8 | 0 | 0 | 154 | 0,6 | 998,1 |
| 9 | La Cruz | 09-05-2026 02:00 | 4,3 | 93,6 | 0 | 0 | 154 | 0,6 | 998,4 |
| 8 | La Cruz | 09-05-2026 01:45 | 4,5 | 93,1 | 0 | 0 | 154 | 0,6 | 998,6 |
| 7 | La Cruz | 09-05-2026 01:30 | 5,1 | 93,2 | 0 | 0 | 154 | 0,6 | 998,7 |
| 6 | La Cruz | 09-05-2026 01:15 | 5,5 | 93,3 | 0 | 0 | 154 | 0,6 | 998,6 |
| 5 | La Cruz | 09-05-2026 01:00 | 6 | 93,2 | 0 | 0 | 154 | 0,6 | 998,6 |
| 4 | La Cruz | 09-05-2026 00:45 | 6,1 | 93,2 | 0 | 0 | 154 | 0,6 | 998,8 |
| 3 | La Cruz | 09-05-2026 00:30 | 5,7 | 92,7 | 0 | 0 | 154 | 0,6 | 998,9 |
| 2 | La Cruz | 09-05-2026 00:15 | 5,5 | 91,9 | 0 | 0 | 154 | 0,6 | 999 |
| 1 | La Cruz | 09-05-2026 00:00 | 6,1 | 92,1 | 0 | 0 | 154 | 0,6 | 999,3 |